Time,TemperatureF,DewpointF,PressureIn,WindDirection,WindDirectionDegrees,WindSpeedMPH,WindSpeedGustMPH,Humidity,HourlyPrecipIn,Conditions,Clouds,dailyrainin,SolarRadiationWatts/m^2,SoftwareType,DateUTC
2013-09-09 00:00:00,45.5,44.2,30.15,NE,42,0.0,0.0,95,0.00,,---,0.00,0.00,VWS V14.01,2013-09-09 04:00:00,
2013-09-09 00:01:00,45.5,44.2,30.15,NE,42,0.0,0.0,95,0.00,,---,0.00,0.00,VWS V14.01,2013-09-09 04:01:00,
2013-09-09 00:02:00,45.5,44.2,30.15,NE,42,0.0,0.0,95,0.00,,---,0.00,0.00,VWS V14.01,2013-09-09 04:02:00,
2013-09-09 00:07:00,45.5,44.4,30.15,NE,42,0.0,0.0,96,0.00,,---,0.00,0.00,VWS V14.01,2013-09-09 04:07:00,
2013-09-09 00:12:00,45.5,44.4,30.15,NE,42,0.0,0.0,96,0.00,,---,0.00,0.00,VWS V14.01,2013-09-09 04:12:00,
2013-09-09 00:17:00,45.4,44.3,30.15,NE,42,0.0,0.0,96,0.00,,---,0.00,0.00,VWS V14.01,2013-09-09 04:17:00,
2013-09-09 00:22:00,45.2,43.9,30.15,NE,42,0.0,0.0,95,0.00,,---,0.00,0.00,VWS V14.01,2013-09-09 04:22:00,
2013-09-09 00:27:00,45.1,43.8,30.15,NE,42,0.0,0.0,95,0.00,,---,0.00,0.00,VWS V14.01,2013-09-09 04:27:00,
2013-09-09 00:30:00,46.1,44.8,30.15,NE,42,0.0,0.0,95,0.00,,---,0.01,0.00,VWS V14.01,2013-09-09 04:30:00,
2013-09-09 00:32:00,45.0,43.9,30.16,NE,42,0.0,0.0,96,0.00,,---,0.00,0.00,VWS V14.01,2013-09-09 04:32:00,
2013-09-09 00:37:00,44.9,43.8,30.15,NE,42,0.0,0.0,96,0.00,,---,0.00,0.00,VWS V14.01,2013-09-09 04:37:00,
2013-09-09 00:42:00,44.7,43.6,30.15,NE,42,0.0,0.0,96,0.00,,---,0.00,0.00,VWS V14.01,2013-09-09 04:42:00,
2013-09-09 00:47:00,44.6,43.5,30.15,NE,42,0.0,0.0,96,0.00,,---,0.00,0.00,VWS V14.01,2013-09-09 04:47:00,
2013-09-09 00:52:00,44.5,43.2,30.15,NE,42,0.0,0.0,95,0.00,,---,0.00,0.00,VWS V14.01,2013-09-09 04:52:00,
2013-09-09 00:57:00,44.5,43.4,30.15,NE,42,0.0,0.0,96,0.00,,---,0.00,0.00,VWS V14.01,2013-09-09 04:57:00,
2013-09-09 01:00:00,45.5,44.2,30.15,NE,42,0.0,0.0,95,0.00,,---,0.01,0.00,VWS V14.01,2013-09-09 05:00:00,
2013-09-09 01:02:00,44.5,43.4,30.15,NE,42,0.0,0.0,96,0.00,,---,0.00,0.00,VWS V14.01,2013-09-09 05:02:00,
2013-09-09 01:07:00,44.4,43.3,30.16,NE,42,0.0,0.0,96,0.00,,---,0.00,0.00,VWS V14.01,2013-09-09 05:07:00,
2013-09-09 01:12:00,44.3,43.2,30.16,NE,42,0.0,0.0,96,0.00,,---,0.00,0.00,VWS V14.01,2013-09-09 05:12:00,
2013-09-09 01:17:00,44.3,43.2,30.15,NE,42,0.0,0.0,96,0.00,,---,0.00,0.00,VWS V14.01,2013-09-09 05:17:00,
2013-09-09 01:22:00,44.4,43.3,30.15,NE,42,0.0,0.0,96,0.00,,---,0.00,0.00,VWS V14.01,2013-09-09 05:22:00,
2013-09-09 01:27:00,44.5,43.4,30.15,NE,42,0.0,0.0,96,0.00,,---,0.00,0.00,VWS V14.01,2013-09-09 05:27:00,
2013-09-09 01:30:00,45.0,43.9,30.16,NE,42,0.0,0.0,96,0.00,,---,0.00,0.00,VWS V14.01,2013-09-09 05:30:00,
2013-09-09 01:32:00,44.4,43.3,30.15,NE,42,0.0,0.0,96,0.00,,---,0.00,0.00,VWS V14.01,2013-09-09 05:32:00,
2013-09-09 01:37:00,44.3,43.2,30.15,NE,42,0.0,0.0,96,0.00,,---,0.00,0.00,VWS V14.01,2013-09-09 05:37:00,
2013-09-09 01:42:00,44.2,43.1,30.15,NE,42,0.0,0.0,96,0.00,,---,0.00,0.00,VWS V14.01,2013-09-09 05:42:00,
2013-09-09 01:47:00,44.2,43.1,30.15,NE,42,0.0,0.0,96,0.00,,---,0.00,0.00,VWS V14.01,2013-09-09 05:47:00,
2013-09-09 01:52:00,44.2,43.1,30.15,NE,42,0.0,0.0,96,0.00,,---,0.00,0.00,VWS V14.01,2013-09-09 05:52:00,
2013-09-09 01:57:00,44.2,43.1,30.15,NE,42,0.0,0.0,96,0.00,,---,0.00,0.00,VWS V14.01,2013-09-09 05:57:00,
2013-09-09 02:00:00,44.5,43.4,30.15,NE,42,0.0,0.0,96,0.00,,---,0.00,0.00,VWS V14.01,2013-09-09 06:00:00,
2013-09-09 02:02:00,44.4,43.3,30.15,NE,42,0.0,0.0,96,0.00,,---,0.00,0.00,VWS V14.01,2013-09-09 06:02:00,
2013-09-09 02:07:00,44.4,43.3,30.15,NE,42,0.0,0.0,96,0.00,,---,0.00,0.00,VWS V14.01,2013-09-09 06:07:00,
2013-09-09 02:12:00,44.3,43.2,30.15,NE,42,0.0,0.0,96,0.00,,---,0.00,0.00,VWS V14.01,2013-09-09 06:12:00,
2013-09-09 02:17:00,44.3,43.2,30.16,NE,42,0.0,0.0,96,0.00,,---,0.00,0.00,VWS V14.01,2013-09-09 06:17:00,
2013-09-09 02:22:00,44.0,42.9,30.16,NE,42,0.0,0.0,96,0.00,,---,0.00,0.00,VWS V14.01,2013-09-09 06:22:00,
2013-09-09 02:27:00,43.6,42.3,30.16,NE,42,0.0,0.0,95,0.00,,---,0.00,0.00,VWS V14.01,2013-09-09 06:27:00,
2013-09-09 02:30:00,44.4,43.3,30.15,NE,42,0.0,0.0,96,0.00,,---,0.00,0.00,VWS V14.01,2013-09-09 06:30:00,
2013-09-09 02:32:00,43.4,42.3,30.16,NE,42,0.0,0.0,96,0.00,,---,0.00,0.00,VWS V14.01,2013-09-09 06:32:00,
2013-09-09 02:37:00,43.4,42.3,30.16,NE,42,0.0,0.0,96,0.00,,---,0.00,0.00,VWS V14.01,2013-09-09 06:37:00,
2013-09-09 02:42:00,43.4,42.3,30.16,NE,42,0.0,0.0,96,0.00,,---,0.00,0.00,VWS V14.01,2013-09-09 06:42:00,
2013-09-09 02:47:00,43.4,42.3,30.16,NE,42,0.0,0.0,96,0.00,,---,0.00,0.00,VWS V14.01,2013-09-09 06:47:00,
2013-09-09 02:52:00,43.3,42.2,30.16,NE,42,0.0,0.0,96,0.00,,---,0.00,0.00,VWS V14.01,2013-09-09 06:52:00,
2013-09-09 02:57:00,43.1,42.0,30.17,NE,42,0.0,0.0,96,0.00,,---,0.00,0.00,VWS V14.01,2013-09-09 06:57:00,
2013-09-09 03:00:00,44.3,43.2,30.15,NE,42,0.0,0.0,96,0.00,,---,0.00,0.00,VWS V14.01,2013-09-09 07:00:00,
2013-09-09 03:02:00,42.9,41.8,30.17,NE,42,0.0,0.0,96,0.00,,---,0.00,0.00,VWS V14.01,2013-09-09 07:02:00,
2013-09-09 03:07:00,42.8,41.7,30.17,NE,42,0.0,0.0,96,0.00,,---,0.00,0.00,VWS V14.01,2013-09-09 07:07:00,
2013-09-09 03:12:00,42.7,41.6,30.17,NE,42,0.0,0.0,96,0.00,,---,0.00,0.00,VWS V14.01,2013-09-09 07:12:00,
2013-09-09 03:17:00,42.8,41.7,30.18,NE,42,0.0,0.0,96,0.00,,---,0.00,0.00,VWS V14.01,2013-09-09 07:17:00,
2013-09-09 03:22:00,42.9,41.8,30.18,NE,42,0.0,0.0,96,0.00,,---,0.00,0.00,VWS V14.01,2013-09-09 07:22:00,
2013-09-09 03:27:00,42.8,41.7,30.18,NE,42,0.0,0.0,96,0.00,,---,0.00,0.00,VWS V14.01,2013-09-09 07:27:00,
2013-09-09 03:30:00,43.4,42.3,30.16,NE,42,0.0,0.0,96,0.00,,---,0.00,0.00,VWS V14.01,2013-09-09 07:30:00,
2013-09-09 03:32:00,42.6,41.5,30.18,NE,42,0.0,0.0,96,0.00,,---,0.00,0.00,VWS V14.01,2013-09-09 07:32:00,
2013-09-09 03:37:00,42.6,41.5,30.19,NE,42,0.0,0.0,96,0.00,,---,0.00,0.00,VWS V14.01,2013-09-09 07:37:00,
2013-09-09 03:42:00,42.6,41.5,30.18,NE,42,0.0,0.0,96,0.00,,---,0.00,0.00,VWS V14.01,2013-09-09 07:42:00,
2013-09-09 03:47:00,42.5,41.4,30.19,NE,42,0.0,0.0,96,0.00,,---,0.00,0.00,VWS V14.01,2013-09-09 07:47:00,
2013-09-09 03:52:00,42.5,41.4,30.19,NE,42,0.0,0.0,96,0.00,,---,0.00,0.00,VWS V14.01,2013-09-09 07:52:00,
2013-09-09 03:57:00,42.4,41.3,30.19,NE,42,0.0,0.0,96,0.00,,---,0.00,0.00,VWS V14.01,2013-09-09 07:57:00,
2013-09-09 04:00:00,43.0,41.9,30.17,NE,42,0.0,0.0,96,0.00,,---,0.00,0.00,VWS V14.01,2013-09-09 08:00:00,
2013-09-09 04:02:00,42.3,41.2,30.20,NE,42,0.0,0.0,96,0.00,,---,0.00,0.00,VWS V14.01,2013-09-09 08:02:00,
2013-09-09 04:07:00,42.1,41.0,30.20,NE,42,0.0,0.0,96,0.00,,---,0.00,0.00,VWS V14.01,2013-09-09 08:07:00,
2013-09-09 04:12:00,42.0,40.9,30.20,NE,42,0.0,0.0,96,0.00,,---,0.00,0.00,VWS V14.01,2013-09-09 08:12:00,
2013-09-09 04:17:00,41.9,40.8,30.20,NE,42,0.0,0.0,96,0.00,,---,0.00,0.00,VWS V14.01,2013-09-09 08:17:00,
2013-09-09 04:22:00,41.8,40.8,30.21,NE,42,0.0,0.0,96,0.00,,---,0.00,0.00,VWS V14.01,2013-09-09 08:22:00,
2013-09-09 04:27:00,41.7,40.7,30.21,NE,42,0.0,0.0,96,0.00,,---,0.00,0.00,VWS V14.01,2013-09-09 08:27:00,
2013-09-09 04:30:00,42.7,41.6,30.18,NE,42,0.0,0.0,96,0.00,,---,0.00,0.00,VWS V14.01,2013-09-09 08:30:00,
2013-09-09 04:32:00,41.5,40.5,30.21,NE,42,0.0,0.0,96,0.00,,---,0.00,0.00,VWS V14.01,2013-09-09 08:32:00,
2013-09-09 04:37:00,41.4,40.3,30.22,NE,42,0.0,0.0,96,0.00,,---,0.00,0.00,VWS V14.01,2013-09-09 08:37:00,
2013-09-09 04:42:00,41.1,40.0,30.22,NE,42,0.0,0.0,96,0.00,,---,0.00,0.00,VWS V14.01,2013-09-09 08:42:00,
2013-09-09 04:47:00,40.9,39.8,30.22,NE,42,0.0,0.0,96,0.00,,---,0.00,0.00,VWS V14.01,2013-09-09 08:47:00,
2013-09-09 04:52:00,40.8,39.8,30.22,NE,42,0.0,0.0,96,0.00,,---,0.00,0.00,VWS V14.01,2013-09-09 08:52:00,
2013-09-09 04:57:00,40.9,39.8,30.22,NE,42,0.0,0.0,96,0.00,,---,0.00,0.00,VWS V14.01,2013-09-09 08:57:00,
2013-09-09 05:00:00,42.3,41.2,30.19,NE,42,0.0,0.0,96,0.00,,---,0.00,0.00,VWS V14.01,2013-09-09 09:00:00,
2013-09-09 05:02:00,40.9,39.8,30.22,NE,42,0.0,0.0,96,0.00,,---,0.00,0.00,VWS V14.01,2013-09-09 09:02:00,
2013-09-09 05:07:00,40.8,39.8,30.22,NE,42,0.0,0.0,96,0.00,,---,0.00,0.00,VWS V14.01,2013-09-09 09:07:00,
2013-09-09 05:12:00,40.6,39.5,30.22,NE,42,0.0,0.0,96,0.00,,---,0.00,0.00,VWS V14.01,2013-09-09 09:12:00,
2013-09-09 05:17:00,40.5,39.5,30.23,NE,42,0.0,0.0,96,0.00,,---,0.00,0.00,VWS V14.01,2013-09-09 09:17:00,
2013-09-09 05:22:00,40.6,39.8,30.23,NE,42,0.0,0.0,97,0.00,,---,0.00,0.00,VWS V14.01,2013-09-09 09:22:00,
2013-09-09 05:26:00,40.5,39.7,30.23,NE,42,0.0,0.0,97,0.00,,---,0.00,0.00,VWS V14.01,2013-09-09 09:26:00,
2013-09-09 05:30:00,41.6,40.5,30.21,NE,42,0.0,0.0,96,0.00,,---,0.00,0.00,VWS V14.01,2013-09-09 09:30:00,
2013-09-09 05:31:00,40.3,39.2,30.23,NE,42,0.0,0.0,96,0.00,,---,0.00,0.00,VWS V14.01,2013-09-09 09:31:00,
2013-09-09 05:36:00,40.0,39.0,30.23,NE,42,0.0,0.0,96,0.00,,---,0.00,0.00,VWS V14.01,2013-09-09 09:36:00,
2013-09-09 05:41:00,40.0,39.2,30.23,NE,42,0.0,0.0,97,0.00,,---,0.00,0.00,VWS V14.01,2013-09-09 09:41:00,
2013-09-09 05:46:00,39.9,39.1,30.24,NE,42,0.0,0.0,97,0.00,,---,0.00,0.00,VWS V14.01,2013-09-09 09:46:00,
2013-09-09 05:51:00,39.9,39.1,30.24,NE,42,0.0,0.0,97,0.00,,---,0.00,0.00,VWS V14.01,2013-09-09 09:51:00,
2013-09-09 05:56:00,39.9,39.1,30.24,NE,42,0.0,0.0,97,0.00,,---,0.00,0.00,VWS V14.01,2013-09-09 09:56:00,
2013-09-09 06:00:00,40.9,39.8,30.22,NE,42,0.0,0.0,96,0.00,,---,0.00,0.00,VWS V14.01,2013-09-09 10:00:00,
2013-09-09 06:01:00,40.0,39.2,30.24,NE,42,0.0,0.0,97,0.00,,---,0.00,0.00,VWS V14.01,2013-09-09 10:01:00,
2013-09-09 06:06:00,40.0,39.2,30.25,NE,42,0.0,0.0,97,0.00,,---,0.00,0.00,VWS V14.01,2013-09-09 10:06:00,
2013-09-09 06:11:00,40.0,39.2,30.25,NE,42,0.0,0.0,97,0.00,,---,0.00,0.00,VWS V14.01,2013-09-09 10:11:00,
2013-09-09 06:16:00,40.0,39.2,30.25,NE,42,0.0,0.0,97,0.00,,---,0.00,0.00,VWS V14.01,2013-09-09 10:16:00,
2013-09-09 06:21:00,39.9,39.1,30.25,NE,42,0.0,0.0,97,0.00,,---,0.00,0.00,VWS V14.01,2013-09-09 10:21:00,
2013-09-09 06:26:00,39.8,39.0,30.25,NE,42,0.0,0.0,97,0.00,,---,0.00,0.00,VWS V14.01,2013-09-09 10:26:00,
2013-09-09 06:30:00,40.4,39.6,30.23,NE,42,0.0,0.0,97,0.00,,---,0.00,0.00,VWS V14.01,2013-09-09 10:30:00,
2013-09-09 06:31:00,39.9,39.1,30.26,NE,42,0.0,0.0,97,0.00,,---,0.00,0.00,VWS V14.01,2013-09-09 10:31:00,
2013-09-09 06:36:00,39.9,39.1,30.26,NE,42,0.0,0.0,97,0.00,,---,0.00,7.00,VWS V14.01,2013-09-09 10:36:00,
2013-09-09 06:41:00,39.8,39.0,30.26,NE,42,0.0,0.0,97,0.00,,---,0.00,11.00,VWS V14.01,2013-09-09 10:41:00,
2013-09-09 06:46:00,39.8,39.0,30.26,NE,42,0.0,0.0,97,0.00,,---,0.00,12.00,VWS V14.01,2013-09-09 10:46:00,
2013-09-09 06:51:00,39.8,39.0,30.26,NE,42,0.0,0.0,97,0.00,,---,0.00,19.00,VWS V14.01,2013-09-09 10:51:00,
2013-09-09 06:56:00,40.0,39.2,30.27,NE,42,0.0,0.0,97,0.00,,---,0.00,21.00,VWS V14.01,2013-09-09 10:56:00,
2013-09-09 07:00:00,40.0,39.2,30.24,NE,42,0.0,0.0,97,0.00,,---,0.00,0.00,VWS V14.01,2013-09-09 11:00:00,
2013-09-09 07:01:00,40.0,39.2,30.27,NE,42,0.0,0.0,97,0.00,,---,0.00,23.00,VWS V14.01,2013-09-09 11:01:00,
2013-09-09 07:06:00,40.1,39.3,30.27,NE,42,0.0,0.0,97,0.00,,---,0.00,25.00,VWS V14.01,2013-09-09 11:06:00,
2013-09-09 07:12:00,40.3,39.5,30.28,NE,42,0.0,0.0,97,0.00,,---,0.00,26.00,VWS V14.01,2013-09-09 11:12:00,
2013-09-09 07:17:00,40.6,39.8,30.27,NE,42,0.0,0.0,97,0.00,,---,0.00,30.00,VWS V14.01,2013-09-09 11:17:00,
2013-09-09 07:21:00,41.0,40.5,30.28,NE,42,0.0,0.0,98,0.00,,---,0.00,74.00,VWS V14.01,2013-09-09 11:21:00,
2013-09-09 07:26:00,41.4,40.6,30.28,NE,42,0.0,0.0,97,0.00,,---,0.00,86.00,VWS V14.01,2013-09-09 11:26:00,
2013-09-09 07:30:00,39.9,39.1,30.26,NE,42,0.0,0.0,97,0.00,,---,0.00,0.00,VWS V14.01,2013-09-09 11:30:00,
2013-09-09 07:31:00,42.0,41.5,30.28,NE,42,0.0,0.0,98,0.00,,---,0.00,125.00,VWS V14.01,2013-09-09 11:31:00,
2013-09-09 07:36:00,42.7,42.2,30.28,NE,42,0.0,0.0,98,0.00,,---,0.00,141.00,VWS V14.01,2013-09-09 11:36:00,
2013-09-09 07:41:00,43.4,42.9,30.28,NE,42,0.0,0.0,98,0.00,,---,0.00,162.00,VWS V14.01,2013-09-09 11:41:00,
2013-09-09 07:46:00,44.0,43.5,30.28,NE,42,0.0,0.0,98,0.00,,---,0.00,176.00,VWS V14.01,2013-09-09 11:46:00,
2013-09-09 07:51:00,44.5,44.0,30.28,NE,42,0.0,0.0,98,0.00,,---,0.00,167.00,VWS V14.01,2013-09-09 11:51:00,
2013-09-09 07:56:00,44.9,44.4,30.28,NE,42,0.0,0.0,98,0.00,,---,0.00,211.00,VWS V14.01,2013-09-09 11:56:00,
2013-09-09 08:00:00,40.0,39.2,30.27,NE,42,0.0,0.0,97,0.00,,---,0.00,23.00,VWS V14.01,2013-09-09 12:00:00,
2013-09-09 08:01:00,45.7,45.2,30.28,NE,42,0.0,0.0,98,0.00,,---,0.00,206.00,VWS V14.01,2013-09-09 12:01:00,
2013-09-09 08:06:00,46.3,45.8,30.28,NE,42,0.0,0.0,98,0.00,,---,0.00,239.00,VWS V14.01,2013-09-09 12:06:00,
2013-09-09 08:11:00,46.9,46.1,30.28,NE,42,0.0,1.0,97,0.00,,---,0.00,250.00,VWS V14.01,2013-09-09 12:11:00,
2013-09-09 08:16:00,47.7,46.6,30.28,NE,42,0.0,1.0,96,0.00,,---,0.00,267.00,VWS V14.01,2013-09-09 12:16:00,
2013-09-09 08:21:00,48.2,46.8,30.28,NE,42,0.0,1.0,95,0.00,,---,0.00,269.00,VWS V14.01,2013-09-09 12:21:00,
2013-09-09 08:26:00,48.7,47.0,30.28,NE,42,0.0,1.0,94,0.00,,---,0.00,299.00,VWS V14.01,2013-09-09 12:26:00,
2013-09-09 08:30:00,41.8,41.3,30.28,NE,42,0.0,0.0,98,0.00,,---,0.00,114.00,VWS V14.01,2013-09-09 12:30:00,
2013-09-09 08:31:00,49.4,47.5,30.28,NE,42,0.0,0.0,93,0.00,,---,0.00,315.00,VWS V14.01,2013-09-09 12:31:00,
2013-09-09 08:36:00,50.0,47.2,30.28,NE,42,2.0,2.0,90,0.00,,---,0.00,301.00,VWS V14.01,2013-09-09 12:36:00,
2013-09-09 08:41:00,50.6,48.1,30.28,NE,42,0.0,3.0,91,0.00,,---,0.00,311.00,VWS V14.01,2013-09-09 12:41:00,
2013-09-09 08:46:00,51.1,47.7,30.27,NE,42,0.0,3.0,88,0.00,,---,0.00,397.00,VWS V14.01,2013-09-09 12:46:00,
2013-09-09 08:51:00,51.8,48.7,30.27,NE,42,0.0,3.0,89,0.00,,---,0.00,380.00,VWS V14.01,2013-09-09 12:51:00,
2013-09-09 08:56:00,52.3,48.2,30.27,NE,42,0.0,3.0,86,0.00,,---,0.00,436.00,VWS V14.01,2013-09-09 12:56:00,
2013-09-09 09:00:00,45.5,45.0,30.28,NE,42,0.0,0.0,98,0.00,,---,0.00,211.00,VWS V14.01,2013-09-09 13:00:00,
2013-09-09 09:01:00,52.8,48.4,30.27,NE,42,0.0,0.0,85,0.00,,---,0.00,441.00,VWS V14.01,2013-09-09 13:01:00,
2013-09-09 09:06:00,53.6,48.9,30.27,NE,43,2.0,2.0,84,0.00,,---,0.00,452.00,VWS V14.01,2013-09-09 13:06:00,
2013-09-09 09:11:00,54.4,49.7,30.28,NE,43,0.0,3.0,84,0.00,,---,0.00,438.00,VWS V14.01,2013-09-09 13:11:00,
2013-09-09 09:16:00,54.7,48.7,30.28,NE,43,0.0,3.0,80,0.00,,---,0.00,359.00,VWS V14.01,2013-09-09 13:16:00,
2013-09-09 09:21:00,55.2,49.5,30.28,NE,43,0.0,3.0,81,0.00,,---,0.00,425.00,VWS V14.01,2013-09-09 13:21:00,
2013-09-09 09:26:00,55.6,49.5,30.28,SSE,148,2.0,3.0,80,0.00,,---,0.00,439.00,VWS V14.01,2013-09-09 13:26:00,
2013-09-09 09:30:00,49.2,47.5,30.28,NE,42,0.0,1.0,94,0.00,,---,0.00,322.00,VWS V14.01,2013-09-09 13:30:00,
2013-09-09 09:31:00,56.0,49.9,30.28,ESE,113,3.0,3.0,80,0.00,,---,0.00,462.00,VWS V14.01,2013-09-09 13:31:00,
2013-09-09 09:36:00,56.3,50.2,30.28,SE,133,0.0,4.0,80,0.00,,---,0.00,522.00,VWS V14.01,2013-09-09 13:36:00,
2013-09-09 09:41:00,56.9,50.5,30.28,SE,133,3.0,4.0,79,0.00,,---,0.00,515.00,VWS V14.01,2013-09-09 13:41:00,
2013-09-09 09:46:00,57.3,49.8,30.28,SE,133,0.0,4.0,76,0.00,,---,0.00,540.00,VWS V14.01,2013-09-09 13:46:00,
2013-09-09 09:52:00,57.7,50.5,30.28,ESE,113,0.0,4.0,77,0.00,,---,0.00,510.00,VWS V14.01,2013-09-09 13:52:00,
2013-09-09 09:57:00,58.2,50.0,30.28,South,189,0.0,4.0,74,0.00,,---,0.00,519.00,VWS V14.01,2013-09-09 13:57:00,
2013-09-09 10:00:00,52.6,47.9,30.27,NE,42,0.0,3.0,84,0.00,,---,0.00,415.00,VWS V14.01,2013-09-09 14:00:00,
2013-09-09 10:02:00,58.6,50.7,30.28,East,96,0.0,0.0,75,0.00,,---,0.00,594.00,VWS V14.01,2013-09-09 14:02:00,
2013-09-09 10:07:00,59.2,50.6,30.27,NE,51,0.0,2.0,73,0.00,,---,0.00,613.00,VWS V14.01,2013-09-09 14:07:00,
2013-09-09 10:12:00,59.9,50.9,30.27,NNW,335,0.0,5.0,72,0.00,,---,0.00,638.00,VWS V14.01,2013-09-09 14:12:00,
2013-09-09 10:17:00,60.2,50.0,30.28,SSE,153,0.0,5.0,69,0.00,,---,0.00,645.00,VWS V14.01,2013-09-09 14:17:00,
2013-09-09 10:22:00,60.4,49.8,30.27,WNW,287,4.0,5.0,68,0.00,,---,0.00,606.00,VWS V14.01,2013-09-09 14:22:00,
2013-09-09 10:27:00,60.3,49.3,30.27,WNW,288,0.0,6.0,67,0.00,,---,0.00,589.00,VWS V14.01,2013-09-09 14:27:00,
2013-09-09 10:30:00,55.9,50.2,30.28,ESE,113,0.0,3.0,81,0.00,,---,0.00,506.00,VWS V14.01,2013-09-09 14:30:00,
2013-09-09 10:32:00,60.4,48.2,30.27,WNW,288,0.0,0.0,64,0.00,,---,0.00,605.00,VWS V14.01,2013-09-09 14:32:00,
2013-09-09 10:37:00,60.7,49.7,30.27,ENE,73,0.0,2.0,67,0.00,,---,0.00,601.00,VWS V14.01,2013-09-09 14:37:00,
2013-09-09 10:42:00,60.9,49.1,30.27,WNW,282,0.0,3.0,65,0.00,,---,0.00,724.00,VWS V14.01,2013-09-09 14:42:00,
2013-09-09 10:46:00,61.1,49.7,30.27,WSW,257,0.0,4.0,66,0.00,,---,0.00,661.00,VWS V14.01,2013-09-09 14:46:00,
2013-09-09 10:51:00,61.5,50.8,30.27,East,92,0.0,4.0,68,0.00,,---,0.00,714.00,VWS V14.01,2013-09-09 14:51:00,
2013-09-09 10:56:00,62.0,49.3,30.27,NW,304,0.0,5.0,63,0.00,,---,0.00,708.00,VWS V14.01,2013-09-09 14:56:00,
2013-09-09 11:00:00,58.5,50.6,30.28,East,97,0.0,4.0,75,0.00,,---,0.00,534.00,VWS V14.01,2013-09-09 15:00:00,
2013-09-09 11:01:00,62.1,48.5,30.27,SE,126,0.0,2.0,61,0.00,,---,0.00,707.00,VWS V14.01,2013-09-09 15:01:00,
2013-09-09 11:06:00,62.1,48.5,30.26,SW,234,0.0,2.0,61,0.00,,---,0.00,754.00,VWS V14.01,2013-09-09 15:06:00,
2013-09-09 11:11:00,62.4,48.8,30.26,ESE,117,2.0,4.0,61,0.00,,---,0.00,638.00,VWS V14.01,2013-09-09 15:11:00,
2013-09-09 11:16:00,62.6,49.4,30.26,WNW,288,0.0,4.0,62,0.00,,---,0.00,677.00,VWS V14.01,2013-09-09 15:16:00,
2013-09-09 11:21:00,62.7,49.5,30.26,West,265,0.0,6.0,62,0.00,,---,0.00,717.00,VWS V14.01,2013-09-09 15:21:00,
2013-09-09 11:26:00,62.9,50.5,30.26,West,275,0.0,6.0,64,0.00,,---,0.00,765.00,VWS V14.01,2013-09-09 15:26:00,
2013-09-09 11:30:00,60.4,49.4,30.27,WNW,288,0.0,6.0,67,0.00,,---,0.00,577.00,VWS V14.01,2013-09-09 15:30:00,
2013-09-09 11:31:00,63.1,49.5,30.26,WNW,290,6.0,6.0,61,0.00,,---,0.00,759.00,VWS V14.01,2013-09-09 15:31:00,
2013-09-09 11:36:00,63.5,49.4,30.26,WNW,301,0.0,6.0,60,0.00,,---,0.00,812.00,VWS V14.01,2013-09-09 15:36:00,
2013-09-09 11:41:00,64.0,49.4,30.26,ESE,114,0.0,6.0,59,0.00,,---,0.00,772.00,VWS V14.01,2013-09-09 15:41:00,
2013-09-09 11:46:00,64.5,50.3,30.25,ESE,120,0.0,6.0,60,0.00,,---,0.00,814.00,VWS V14.01,2013-09-09 15:46:00,
2013-09-09 11:51:00,64.8,50.6,30.25,ENE,71,0.0,8.0,60,0.00,,---,0.00,728.00,VWS V14.01,2013-09-09 15:51:00,
2013-09-09 11:56:00,65.2,50.5,30.25,West,260,0.0,8.0,59,0.00,,---,0.00,870.00,VWS V14.01,2013-09-09 15:56:00,
2013-09-09 12:00:00,62.2,48.2,30.27,WNW,292,2.0,5.0,60,0.00,,---,0.00,694.00,VWS V14.01,2013-09-09 16:00:00,
2013-09-09 12:01:00,65.2,50.1,30.25,WNW,300,0.0,0.0,58,0.00,,---,0.00,791.00,VWS V14.01,2013-09-09 16:01:00,
2013-09-09 12:06:00,65.0,49.9,30.25,WSW,238,0.0,5.0,58,0.00,,---,0.00,573.00,VWS V14.01,2013-09-09 16:06:00,
2013-09-09 12:11:00,64.3,48.3,30.25,WNW,285,0.0,5.0,56,0.00,,---,0.00,399.00,VWS V14.01,2013-09-09 16:11:00,
2013-09-09 12:16:00,63.8,48.3,30.25,WNW,289,4.0,5.0,57,0.00,,---,0.00,545.00,VWS V14.01,2013-09-09 16:16:00,
2013-09-09 12:21:00,63.4,48.4,30.25,East,82,0.0,5.0,58,0.00,,---,0.00,330.00,VWS V14.01,2013-09-09 16:21:00,
2013-09-09 12:26:00,63.4,47.9,30.24,East,82,0.0,5.0,57,0.00,,---,0.00,297.00,VWS V14.01,2013-09-09 16:26:00,
2013-09-09 12:30:00,63.0,48.9,30.26,WNW,292,0.0,6.0,60,0.00,,---,0.00,803.00,VWS V14.01,2013-09-09 16:30:00,
2013-09-09 12:31:00,63.4,48.4,30.24,NNW,334,0.0,5.0,58,0.00,,---,0.00,573.00,VWS V14.01,2013-09-09 16:31:00,
2013-09-09 12:36:00,63.7,48.2,30.24,NNW,334,0.0,5.0,57,0.00,,---,0.00,830.00,VWS V14.01,2013-09-09 16:36:00,
2013-09-09 12:41:00,64.4,48.4,30.24,ENE,65,1.0,5.0,56,0.00,,---,0.00,631.00,VWS V14.01,2013-09-09 16:41:00,
2013-09-09 12:46:00,65.1,49.5,30.24,SE,134,0.0,5.0,57,0.00,,---,0.00,816.00,VWS V14.01,2013-09-09 16:46:00,
2013-09-09 12:51:00,65.8,49.2,30.23,West,267,3.0,5.0,55,0.00,,---,0.00,898.00,VWS V14.01,2013-09-09 16:51:00,
2013-09-09 12:56:00,66.3,49.2,30.23,SE,130,0.0,10.0,54,0.00,,---,0.00,879.00,VWS V14.01,2013-09-09 16:56:00,
2013-09-09 13:00:00,65.2,49.1,30.25,WNW,300,0.0,8.0,56,0.00,,---,0.00,791.00,VWS V14.01,2013-09-09 17:00:00,
2013-09-09 13:01:00,66.5,50.8,30.23,WNW,290,0.0,3.0,57,0.00,,---,0.00,663.00,VWS V14.01,2013-09-09 17:01:00,
2013-09-09 13:06:00,66.4,48.8,30.23,West,277,0.0,4.0,53,0.00,,---,0.00,510.00,VWS V14.01,2013-09-09 17:06:00,
2013-09-09 13:11:00,66.3,49.7,30.23,WSW,244,0.0,4.0,55,0.00,,---,0.00,480.00,VWS V14.01,2013-09-09 17:11:00,
2013-09-09 13:16:00,66.2,50.5,30.23,East,95,0.0,4.0,57,0.00,,---,0.00,524.00,VWS V14.01,2013-09-09 17:16:00,
2013-09-09 13:21:00,66.1,49.5,30.23,West,277,0.0,5.0,55,0.00,,---,0.00,807.00,VWS V14.01,2013-09-09 17:21:00,
2013-09-09 13:26:00,66.7,51.5,30.23,SSE,162,0.0,5.0,58,0.00,,---,0.00,712.00,VWS V14.01,2013-09-09 17:26:00,
2013-09-09 13:30:00,63.3,47.8,30.24,WNW,303,3.0,6.0,57,0.00,,---,0.00,541.00,VWS V14.01,2013-09-09 17:30:00,
2013-09-09 13:31:00,66.8,49.6,30.23,West,272,4.0,5.0,54,0.00,,---,0.00,671.00,VWS V14.01,2013-09-09 17:31:00,
2013-09-09 13:36:00,66.5,48.9,30.23,West,272,3.0,5.0,53,0.00,,---,0.00,619.00,VWS V14.01,2013-09-09 17:36:00,
2013-09-09 13:41:00,66.1,50.0,30.22,ENE,68,0.0,6.0,56,0.00,,---,0.00,680.00,VWS V14.01,2013-09-09 17:41:00,
2013-09-09 13:46:00,66.8,51.6,30.22,ENE,68,1.0,6.0,58,0.00,,---,0.00,712.00,VWS V14.01,2013-09-09 17:46:00,
2013-09-09 13:51:00,67.1,49.9,30.22,West,273,0.0,6.0,54,0.00,,---,0.00,740.00,VWS V14.01,2013-09-09 17:51:00,
2013-09-09 13:56:00,67.3,49.6,30.22,East,96,0.0,9.0,53,0.00,,---,0.00,700.00,VWS V14.01,2013-09-09 17:56:00,
2013-09-09 14:00:00,66.4,49.3,30.23,WNW,289,3.0,10.0,54,0.00,,---,0.00,889.00,VWS V14.01,2013-09-09 18:00:00,
2013-09-09 14:01:00,67.3,49.6,30.21,WNW,282,0.0,3.0,53,0.00,,---,0.00,585.00,VWS V14.01,2013-09-09 18:01:00,
2013-09-09 14:06:00,67.3,50.6,30.22,WNW,302,0.0,7.0,55,0.00,,---,0.00,635.00,VWS V14.01,2013-09-09 18:06:00,
2013-09-09 14:11:00,67.7,51.5,30.21,SE,128,0.0,7.0,56,0.00,,---,0.00,684.00,VWS V14.01,2013-09-09 18:11:00,
2013-09-09 14:16:00,68.2,50.9,30.21,SW,236,0.0,7.0,54,0.00,,---,0.00,603.00,VWS V14.01,2013-09-09 18:16:00,
2013-09-09 14:21:00,67.9,50.2,30.22,West,270,0.0,7.0,53,0.00,,---,0.00,519.00,VWS V14.01,2013-09-09 18:21:00,
2013-09-09 14:26:00,67.9,49.7,30.21,West,279,0.0,7.0,52,0.00,,---,0.00,540.00,VWS V14.01,2013-09-09 18:26:00,
2013-09-09 14:30:00,66.9,49.7,30.23,NW,304,0.0,7.0,54,0.00,,---,0.00,599.00,VWS V14.01,2013-09-09 18:30:00,
2013-09-09 14:31:00,67.8,50.6,30.21,ESE,102,2.0,3.0,54,0.00,,---,0.00,585.00,VWS V14.01,2013-09-09 18:31:00,
2013-09-09 14:36:00,67.8,52.0,30.21,North,349,0.0,5.0,57,0.00,,---,0.00,679.00,VWS V14.01,2013-09-09 18:36:00,
2013-09-09 14:41:00,67.9,51.2,30.21,NNE,21,0.0,5.0,55,0.00,,---,0.00,668.00,VWS V14.01,2013-09-09 18:41:00,
2013-09-09 14:46:00,68.3,51.0,30.21,West,273,5.0,5.0,54,0.00,,---,0.00,666.00,VWS V14.01,2013-09-09 18:46:00,
2013-09-09 14:51:00,67.6,51.4,30.22,West,272,0.0,7.0,56,0.00,,---,0.00,524.00,VWS V14.01,2013-09-09 18:51:00,
2013-09-09 14:56:00,67.7,52.9,30.22,SE,130,0.0,7.0,59,0.00,,---,0.00,570.00,VWS V14.01,2013-09-09 18:56:00,
2013-09-09 15:00:00,67.4,49.7,30.22,WNW,282,3.0,9.0,53,0.00,,---,0.00,661.00,VWS V14.01,2013-09-09 19:00:00,
2013-09-09 15:01:00,67.6,50.9,30.21,ESE,110,2.0,2.0,55,0.00,,---,0.00,545.00,VWS V14.01,2013-09-09 19:01:00,
2013-09-09 15:06:00,67.7,51.0,30.21,West,279,0.0,6.0,55,0.00,,---,0.00,596.00,VWS V14.01,2013-09-09 19:06:00,
2013-09-09 15:11:00,68.0,51.2,30.21,NW,306,0.0,6.0,55,0.00,,---,0.00,598.00,VWS V14.01,2013-09-09 19:11:00,
2013-09-09 15:16:00,68.6,52.3,30.21,West,279,0.0,6.0,56,0.00,,---,0.00,664.00,VWS V14.01,2013-09-09 19:16:00,
2013-09-09 15:21:00,68.8,52.5,30.22,SE,126,0.0,6.0,56,0.00,,---,0.00,585.00,VWS V14.01,2013-09-09 19:21:00,
2013-09-09 15:26:00,69.0,51.7,30.22,NNW,332,0.0,6.0,54,0.00,,---,0.00,561.00,VWS V14.01,2013-09-09 19:26:00,
2013-09-09 15:30:00,67.8,50.6,30.21,West,279,0.0,7.0,54,0.00,,---,0.00,485.00,VWS V14.01,2013-09-09 19:30:00,
2013-09-09 15:31:00,69.0,52.2,30.22,West,279,6.0,6.0,55,0.00,,---,0.00,515.00,VWS V14.01,2013-09-09 19:31:00,
2013-09-09 15:36:00,68.9,53.1,30.21,West,276,0.0,6.0,57,0.00,,---,0.00,612.00,VWS V14.01,2013-09-09 19:36:00,
2013-09-09 15:41:00,69.3,53.4,30.21,WNW,284,1.0,6.0,57,0.00,,---,0.00,577.00,VWS V14.01,2013-09-09 19:41:00,
2013-09-09 15:46:00,69.5,52.2,30.21,SSE,148,4.0,6.0,54,0.00,,---,0.00,541.00,VWS V14.01,2013-09-09 19:46:00,
2013-09-09 15:51:00,69.5,52.2,30.20,West,269,0.0,8.0,54,0.00,,---,0.00,552.00,VWS V14.01,2013-09-09 19:51:00,
2013-09-09 15:56:00,69.2,52.4,30.20,East,101,0.0,8.0,55,0.00,,---,0.00,552.00,VWS V14.01,2013-09-09 19:56:00,
2013-09-09 16:00:00,67.7,51.0,30.22,WNW,293,2.0,7.0,55,0.00,,---,0.00,512.00,VWS V14.01,2013-09-09 20:00:00,
2013-09-09 16:01:00,69.3,52.0,30.19,East,98,5.0,5.0,54,0.00,,---,0.00,399.00,VWS V14.01,2013-09-09 20:01:00,
2013-09-09 16:06:00,69.0,52.2,30.19,WNW,283,0.0,5.0,55,0.00,,---,0.00,415.00,VWS V14.01,2013-09-09 20:06:00,
2013-09-09 16:11:00,69.2,52.4,30.19,West,267,0.0,5.0,55,0.00,,---,0.00,466.00,VWS V14.01,2013-09-09 20:11:00,
2013-09-09 16:16:00,68.8,51.5,30.19,WSW,237,0.0,6.0,54,0.00,,---,0.00,454.00,VWS V14.01,2013-09-09 20:16:00,
2013-09-09 16:21:00,68.7,53.3,30.19,NNW,336,0.0,6.0,58,0.00,,---,0.00,415.00,VWS V14.01,2013-09-09 20:21:00,
2013-09-09 16:26:00,68.9,53.1,30.19,West,276,3.0,6.0,57,0.00,,---,0.00,399.00,VWS V14.01,2013-09-09 20:26:00,
2013-09-09 16:30:00,69.1,51.3,30.21,NNW,333,0.0,6.0,53,0.00,,---,0.00,497.00,VWS V14.01,2013-09-09 20:30:00,
2013-09-09 16:31:00,69.0,52.7,30.18,ESE,107,1.0,4.0,56,0.00,,---,0.00,369.00,VWS V14.01,2013-09-09 20:31:00,
2013-09-09 16:36:00,68.7,52.4,30.19,West,279,0.0,4.0,56,0.00,,---,0.00,374.00,VWS V14.01,2013-09-09 20:36:00,
2013-09-09 16:41:00,68.6,52.8,30.18,West,279,0.0,4.0,57,0.00,,---,0.00,364.00,VWS V14.01,2013-09-09 20:41:00,
2013-09-09 16:46:00,68.5,52.7,30.19,East,88,0.0,4.0,57,0.00,,---,0.00,338.00,VWS V14.01,2013-09-09 20:46:00,
2013-09-09 16:51:00,68.5,52.7,30.18,NE,34,0.0,4.0,57,0.00,,---,0.00,315.00,VWS V14.01,2013-09-09 20:51:00,
2013-09-09 16:56:00,68.4,53.5,30.18,SE,138,0.0,4.0,59,0.00,,---,0.00,287.00,VWS V14.01,2013-09-09 20:56:00,
2013-09-09 17:00:00,69.3,52.0,30.19,WNW,297,1.0,8.0,54,0.00,,---,0.00,380.00,VWS V14.01,2013-09-09 21:00:00,
2013-09-09 17:01:00,68.0,52.7,30.18,NNW,336,0.0,0.0,58,0.00,,---,0.00,257.00,VWS V14.01,2013-09-09 21:01:00,
2013-09-09 17:06:00,67.8,52.5,30.18,West,275,5.0,5.0,58,0.00,,---,0.00,299.00,VWS V14.01,2013-09-09 21:06:00,
2013-09-09 17:11:00,67.8,53.9,30.19,West,265,0.0,5.0,61,0.00,,---,0.00,220.00,VWS V14.01,2013-09-09 21:11:00,
2013-09-09 17:16:00,67.7,52.9,30.18,NNW,332,0.0,5.0,59,0.00,,---,0.00,237.00,VWS V14.01,2013-09-09 21:16:00,
2013-09-09 17:21:00,67.6,53.7,30.18,West,263,3.0,5.0,61,0.00,,---,0.00,229.00,VWS V14.01,2013-09-09 21:21:00,
2013-09-09 17:26:00,67.2,53.3,30.18,WNW,284,5.0,5.0,61,0.00,,---,0.00,197.00,VWS V14.01,2013-09-09 21:26:00,
2013-09-09 17:30:00,68.9,53.5,30.19,West,276,0.0,6.0,58,0.00,,---,0.00,371.00,VWS V14.01,2013-09-09 21:30:00,
2013-09-09 17:31:00,66.9,53.0,30.18,WNW,282,0.0,0.0,61,0.00,,---,0.00,142.00,VWS V14.01,2013-09-09 21:31:00,
2013-09-09 17:36:00,66.7,54.2,30.18,WNW,282,0.0,0.0,64,0.00,,---,0.00,93.00,VWS V14.01,2013-09-09 21:36:00,
2013-09-09 17:41:00,66.5,54.4,30.18,WNW,282,0.0,0.0,65,0.00,,---,0.00,86.00,VWS V14.01,2013-09-09 21:41:00,
2013-09-09 17:46:00,66.2,53.7,30.18,WNW,282,0.0,0.0,64,0.00,,---,0.00,86.00,VWS V14.01,2013-09-09 21:46:00,
2013-09-09 17:51:00,65.9,54.2,30.18,WNW,282,0.0,1.0,66,0.00,,---,0.00,83.00,VWS V14.01,2013-09-09 21:51:00,
2013-09-09 17:56:00,65.6,54.0,30.18,WNW,282,0.0,2.0,66,0.00,,---,0.00,79.00,VWS V14.01,2013-09-09 21:56:00,
2013-09-09 18:00:00,68.1,52.8,30.18,NNW,336,0.0,4.0,58,0.00,,---,0.00,265.00,VWS V14.01,2013-09-09 22:00:00,
2013-09-09 18:01:00,65.3,54.5,30.18,WNW,282,0.0,0.0,68,0.00,,---,0.00,77.00,VWS V14.01,2013-09-09 22:01:00,
2013-09-09 18:06:00,65.0,53.8,30.17,WNW,282,0.0,0.0,67,0.00,,---,0.00,67.00,VWS V14.01,2013-09-09 22:06:00,
2013-09-09 18:11:00,64.7,54.7,30.17,WNW,282,0.0,0.0,70,0.00,,---,0.00,56.00,VWS V14.01,2013-09-09 22:11:00,
2013-09-09 18:16:00,64.5,54.5,30.17,WNW,282,0.0,0.0,70,0.00,,---,0.00,47.00,VWS V14.01,2013-09-09 22:16:00,
2013-09-09 18:21:00,64.2,55.0,30.17,WNW,282,0.0,0.0,72,0.00,,---,0.00,39.00,VWS V14.01,2013-09-09 22:21:00,
2013-09-09 18:26:00,63.9,54.7,30.17,WNW,283,0.0,0.0,72,0.00,,---,0.00,35.00,VWS V14.01,2013-09-09 22:26:00,
2013-09-09 18:30:00,67.0,53.1,30.18,NW,315,0.0,5.0,61,0.00,,---,0.00,162.00,VWS V14.01,2013-09-09 22:30:00,
2013-09-09 18:31:00,63.4,55.3,30.17,WNW,283,0.0,0.0,75,0.00,,---,0.00,32.00,VWS V14.01,2013-09-09 22:31:00,
2013-09-09 18:36:00,63.0,55.0,30.17,WNW,282,0.0,0.0,75,0.00,,---,0.00,26.00,VWS V14.01,2013-09-09 22:36:00,
2013-09-09 18:41:00,62.5,54.8,30.17,WNW,283,0.0,0.0,76,0.00,,---,0.00,21.00,VWS V14.01,2013-09-09 22:41:00,
2013-09-09 18:46:00,62.1,54.5,30.17,WNW,282,0.0,0.0,76,0.00,,---,0.00,16.00,VWS V14.01,2013-09-09 22:46:00,
2013-09-09 18:51:00,61.8,54.5,30.16,WNW,283,0.0,0.0,77,0.00,,---,0.00,12.00,VWS V14.01,2013-09-09 22:51:00,
2013-09-09 18:56:00,61.5,54.6,30.16,WNW,282,0.0,0.0,78,0.00,,---,0.00,7.00,VWS V14.01,2013-09-09 22:56:00,
2013-09-09 19:00:00,65.4,54.2,30.17,WNW,282,0.0,2.0,67,0.00,,---,0.00,77.00,VWS V14.01,2013-09-09 23:00:00,
2013-09-09 19:01:00,61.2,54.3,30.17,WNW,282,0.0,0.0,78,0.00,,---,0.00,5.00,VWS V14.01,2013-09-09 23:01:00,
2013-09-09 19:06:00,61.0,53.8,30.17,WNW,283,0.0,0.0,77,0.00,,---,0.00,0.00,VWS V14.01,2013-09-09 23:06:00,
2013-09-09 19:11:00,61.0,53.8,30.17,WNW,282,0.0,0.0,77,0.00,,---,0.00,0.00,VWS V14.01,2013-09-09 23:11:00,
2013-09-09 19:16:00,61.1,53.8,30.17,WNW,282,0.0,0.0,77,0.00,,---,0.00,0.00,VWS V14.01,2013-09-09 23:16:00,
2013-09-09 19:21:00,61.0,54.5,30.16,WNW,282,0.0,0.0,79,0.00,,---,0.00,0.00,VWS V14.01,2013-09-09 23:21:00,
2013-09-09 19:26:00,60.8,54.3,30.16,WNW,282,0.0,0.0,79,0.00,,---,0.00,0.00,VWS V14.01,2013-09-09 23:26:00,
2013-09-09 19:30:00,63.5,55.1,30.17,WNW,283,0.0,0.0,74,0.00,,---,0.00,33.00,VWS V14.01,2013-09-09 23:30:00,
2013-09-09 19:31:00,60.5,54.3,30.16,WNW,282,0.0,0.0,80,0.00,,---,0.00,0.00,VWS V14.01,2013-09-09 23:31:00,
2013-09-09 19:36:00,60.3,53.8,30.16,WNW,283,0.0,0.0,79,0.00,,---,0.00,0.00,VWS V14.01,2013-09-09 23:36:00,
2013-09-09 19:41:00,60.2,53.7,30.16,ENE,62,0.0,0.0,79,0.00,,---,0.00,0.00,VWS V14.01,2013-09-09 23:41:00,
2013-09-09 19:46:00,60.0,54.5,30.16,ENE,62,0.0,0.0,82,0.00,,---,0.00,0.00,VWS V14.01,2013-09-09 23:46:00,
2013-09-09 19:51:00,59.8,54.0,30.17,ENE,62,0.0,0.0,81,0.00,,---,0.00,0.00,VWS V14.01,2013-09-09 23:51:00,
2013-09-09 19:56:00,59.7,53.9,30.17,ENE,62,0.0,0.0,81,0.00,,---,0.00,0.00,VWS V14.01,2013-09-09 23:56:00,
2013-09-09 20:00:00,61.3,54.4,30.17,WNW,283,0.0,0.0,78,0.00,,---,0.00,7.00,VWS V14.01,2013-09-10 00:00:00,
2013-09-09 20:01:00,60.0,53.1,30.17,ENE,62,0.0,0.0,78,0.00,,---,0.00,0.00,VWS V14.01,2013-09-10 00:01:00,
2013-09-09 20:06:00,60.6,53.4,30.17,WNW,294,0.0,3.0,77,0.00,,---,0.00,0.00,VWS V14.01,2013-09-10 00:06:00,
2013-09-09 20:11:00,61.0,53.4,30.17,WNW,294,0.0,3.0,76,0.00,,---,0.00,0.00,VWS V14.01,2013-09-10 00:11:00,
2013-09-09 20:16:00,61.2,53.2,30.17,WNW,293,0.0,3.0,75,0.00,,---,0.00,0.00,VWS V14.01,2013-09-10 00:16:00,
2013-09-09 20:21:00,61.3,53.3,30.17,WNW,293,0.0,3.0,75,0.00,,---,0.00,0.00,VWS V14.01,2013-09-10 00:21:00,
2013-09-09 20:26:00,61.3,53.0,30.17,NW,326,0.0,3.0,74,0.00,,---,0.00,0.00,VWS V14.01,2013-09-10 00:26:00,
2013-09-09 20:30:00,60.6,54.1,30.16,WNW,283,0.0,0.0,79,0.00,,---,0.00,0.00,VWS V14.01,2013-09-10 00:30:00,
2013-09-09 20:31:00,61.3,53.0,30.17,NW,326,0.0,0.0,74,0.00,,---,0.00,0.00,VWS V14.01,2013-09-10 00:31:00,
2013-09-09 20:36:00,61.2,53.2,30.17,NW,326,0.0,0.0,75,0.00,,---,0.00,0.00,VWS V14.01,2013-09-10 00:36:00,
2013-09-09 20:41:00,60.8,52.8,30.17,NW,326,0.0,0.0,75,0.00,,---,0.00,0.00,VWS V14.01,2013-09-10 00:41:00,
2013-09-09 20:46:00,60.6,53.0,30.17,NW,326,0.0,0.0,76,0.00,,---,0.00,0.00,VWS V14.01,2013-09-10 00:46:00,
2013-09-09 20:51:00,60.5,52.9,30.17,NW,326,0.0,0.0,76,0.00,,---,0.00,0.00,VWS V14.01,2013-09-10 00:51:00,
2013-09-09 20:56:00,60.4,53.2,30.17,NW,326,0.0,0.0,77,0.00,,---,0.00,0.00,VWS V14.01,2013-09-10 00:56:00,
2013-09-09 21:00:00,59.8,53.6,30.17,ENE,62,0.0,0.0,80,0.00,,---,0.00,0.00,VWS V14.01,2013-09-10 01:00:00,
2013-09-09 21:01:00,60.3,53.1,30.17,NW,326,0.0,0.0,77,0.00,,---,0.00,0.00,VWS V14.01,2013-09-10 01:01:00,
2013-09-09 21:06:00,60.3,53.4,30.17,NW,326,0.0,2.0,78,0.00,,---,0.00,0.00,VWS V14.01,2013-09-10 01:06:00,
2013-09-09 21:11:00,60.2,53.3,30.17,West,262,0.0,4.0,78,0.00,,---,0.00,0.00,VWS V14.01,2013-09-10 01:11:00,
2013-09-09 21:16:00,60.3,53.8,30.17,West,262,0.0,4.0,79,0.00,,---,0.00,0.00,VWS V14.01,2013-09-10 01:16:00,
2013-09-09 21:21:00,60.4,53.9,30.17,WNW,284,0.0,4.0,79,0.00,,---,0.00,0.00,VWS V14.01,2013-09-10 01:21:00,
2013-09-09 21:26:00,60.5,54.0,30.17,WNW,284,0.0,4.0,79,0.00,,---,0.00,0.00,VWS V14.01,2013-09-10 01:26:00,
2013-09-09 21:30:00,61.3,53.0,30.17,NW,326,0.0,3.0,74,0.00,,---,0.00,0.00,VWS V14.01,2013-09-10 01:30:00,
2013-09-09 21:31:00,60.4,53.9,30.17,WNW,284,0.0,0.0,79,0.00,,---,0.00,0.00,VWS V14.01,2013-09-10 01:31:00,
2013-09-09 21:36:00,60.4,53.9,30.17,WNW,284,0.0,0.0,79,0.00,,---,0.00,0.00,VWS V14.01,2013-09-10 01:36:00,
2013-09-09 21:41:00,60.4,54.2,30.17,WNW,284,0.0,2.0,80,0.00,,---,0.00,0.00,VWS V14.01,2013-09-10 01:41:00,
2013-09-09 21:46:00,60.4,54.2,30.17,WNW,284,0.0,2.0,80,0.00,,---,0.00,0.00,VWS V14.01,2013-09-10 01:46:00,
2013-09-09 21:51:00,60.3,54.1,30.17,WNW,284,0.0,2.0,80,0.00,,---,0.00,0.00,VWS V14.01,2013-09-10 01:51:00,
2013-09-09 21:56:00,60.2,54.0,30.17,WNW,284,0.0,2.0,80,0.00,,---,0.00,0.00,VWS V14.01,2013-09-10 01:56:00,
2013-09-09 22:00:00,60.4,53.2,30.17,NW,326,0.0,0.0,77,0.00,,---,0.00,0.00,VWS V14.01,2013-09-10 02:00:00,
2013-09-09 22:01:00,60.1,54.3,30.17,WNW,284,0.0,0.0,81,0.00,,---,0.00,0.00,VWS V14.01,2013-09-10 02:01:00,
2013-09-09 22:06:00,60.0,54.2,30.17,WNW,284,0.0,0.0,81,0.00,,---,0.00,0.00,VWS V14.01,2013-09-10 02:06:00,
2013-09-09 22:11:00,60.0,54.2,30.17,WNW,284,0.0,0.0,81,0.00,,---,0.00,0.00,VWS V14.01,2013-09-10 02:11:00,
2013-09-09 22:16:00,60.0,54.5,30.17,WNW,284,0.0,0.0,82,0.00,,---,0.00,0.00,VWS V14.01,2013-09-10 02:16:00,
2013-09-09 22:21:00,59.9,54.4,30.17,WNW,284,0.0,0.0,82,0.00,,---,0.00,0.00,VWS V14.01,2013-09-10 02:21:00,
2013-09-09 22:26:00,59.9,54.4,30.16,WNW,284,0.0,0.0,82,0.00,,---,0.00,0.00,VWS V14.01,2013-09-10 02:26:00,
2013-09-09 22:30:00,60.4,53.9,30.17,WNW,284,0.0,4.0,79,0.00,,---,0.00,0.00,VWS V14.01,2013-09-10 02:30:00,
2013-09-09 22:31:00,59.8,54.6,30.17,WNW,284,2.0,2.0,83,0.00,,---,0.00,0.00,VWS V14.01,2013-09-10 02:31:00,
2013-09-09 22:36:00,59.8,54.3,30.16,East,94,0.0,3.0,82,0.00,,---,0.00,0.00,VWS V14.01,2013-09-10 02:36:00,
2013-09-09 22:41:00,59.8,54.6,30.17,East,94,0.0,3.0,83,0.00,,---,0.00,0.00,VWS V14.01,2013-09-10 02:41:00,
2013-09-09 22:46:00,59.9,54.7,30.17,North,355,0.0,3.0,83,0.00,,---,0.00,0.00,VWS V14.01,2013-09-10 02:46:00,
2013-09-09 22:51:00,59.9,54.7,30.17,North,355,0.0,3.0,83,0.00,,---,0.00,0.00,VWS V14.01,2013-09-10 02:51:00,
2013-09-09 22:56:00,59.9,54.7,30.17,West,268,0.0,4.0,83,0.00,,---,0.00,0.00,VWS V14.01,2013-09-10 02:56:00,
2013-09-09 23:00:00,60.2,54.4,30.17,WNW,284,0.0,2.0,81,0.00,,---,0.00,0.00,VWS V14.01,2013-09-10 03:00:00,
2013-09-09 23:01:00,59.8,54.6,30.17,WNW,286,0.0,3.0,83,0.00,,---,0.00,0.00,VWS V14.01,2013-09-10 03:01:00,
2013-09-09 23:06:00,59.8,54.6,30.17,WNW,294,0.0,4.0,83,0.00,,---,0.00,0.00,VWS V14.01,2013-09-10 03:06:00,
2013-09-09 23:11:00,59.8,54.6,30.17,WNW,294,0.0,4.0,83,0.00,,---,0.00,0.00,VWS V14.01,2013-09-10 03:11:00,
2013-09-09 23:16:00,59.6,54.4,30.17,WNW,294,0.0,4.0,83,0.00,,---,0.00,0.00,VWS V14.01,2013-09-10 03:16:00,
2013-09-09 23:21:00,59.5,54.3,30.17,WNW,294,0.0,4.0,83,0.00,,---,0.00,0.00,VWS V14.01,2013-09-10 03:21:00,
2013-09-09 23:26:00,59.5,54.7,30.17,West,276,0.0,4.0,84,0.00,,---,0.00,0.00,VWS V14.01,2013-09-10 03:26:00,
2013-09-09 23:30:00,59.8,54.3,30.16,WNW,284,0.0,0.0,82,0.00,,---,0.00,0.00,VWS V14.01,2013-09-10 03:30:00,
2013-09-09 23:31:00,59.5,54.7,30.17,West,276,0.0,0.0,84,0.00,,---,0.00,0.00,VWS V14.01,2013-09-10 03:31:00,
2013-09-09 23:36:00,59.5,54.7,30.17,West,277,0.0,2.0,84,0.00,,---,0.00,0.00,VWS V14.01,2013-09-10 03:36:00,
2013-09-09 23:41:00,59.5,54.7,30.17,West,277,0.0,2.0,84,0.00,,---,0.00,0.00,VWS V14.01,2013-09-10 03:41:00,
2013-09-09 23:46:00,59.5,54.7,30.17,West,277,0.0,2.0,84,0.00,,---,0.00,0.00,VWS V14.01,2013-09-10 03:46:00,
2013-09-09 23:51:00,59.6,54.8,30.17,West,277,0.0,2.0,84,0.00,,---,0.00,0.00,VWS V14.01,2013-09-10 03:51:00,
2013-09-09 23:56:00,59.6,55.1,30.16,West,281,0.0,2.0,85,0.00,,---,0.00,0.00,VWS V14.01,2013-09-10 03:56:00,